Wind from 340 at 4 knots

Air temperature 7.0° C
Dewpoint 6.0° C

Last reported at 2014-Apr-19 18:20 UTC.
Time now 2014-Apr-19 19:44 UTC

Location: N 64°22' E 007°47'.
View on Google Maps.

See reports from other nearby stations

Tides Stations Pressure Air Temp Water Temp Dewpoint Dewpoint depression Visibility Wind Speed Wind Dir Waves Ship positions

  
sailing weather and tide predictions

DRAUGEN weather

date/time (UTC)wind fromknots sea level pressurealtimeterstation pressurevisibilityair tempwater tempwave heightnotes
2014-Apr-19 18:20 340 4 7.0
2014-Apr-19 17:50 310 6 7.0
2014-Apr-19 17:20 250 19 7.0
2014-Apr-19 16:50 240 22 7.0
2014-Apr-19 16:20 230 26 6.0
2014-Apr-19 15:50 240 27 6.0
2014-Apr-19 15:10 240 29 5.4 7.0 Light drizzle rain. Fog in the vicinity.
2014-Apr-19 14:50 230 30 7.0
2014-Apr-19 14:20 230 32 7.0
2014-Apr-19 13:50 230 32 7.0
2014-Apr-19 13:20 230 35 6.0
2014-Apr-19 12:50 230 36 6.0
2014-Apr-19 12:10 230 36 5.4 7.0 Light drizzle rain. Fog in the vicinity.
2014-Apr-19 11:50 230 36 7.0
2014-Apr-19 11:20 230 36 7.0
2014-Apr-19 10:50 220 37 7.0
2014-Apr-19 10:20 220 36 6.0
2014-Apr-19 09:50 230 40 6.0
2014-Apr-19 09:10 220 39 5.4 6.0 Fog in the vicinity.
2014-Apr-19 08:50 220 40 6.0
2014-Apr-19 08:20 220 40 6.0
2014-Apr-19 07:50 220 36 6.0
2014-Apr-19 07:20 220 38 6.0
2014-Apr-19 06:50 220 38 7.0
2014-Apr-19 06:10 220 39 3.8 7.0 Fog in the vicinity.
2014-Apr-19 05:50 220 39 7.0
2014-Apr-19 05:20 220 39 7.0
2014-Apr-19 04:50 220 39 7.0
2014-Apr-19 04:20 220 37 7.0
2014-Apr-19 03:50 220 38 7.0
2014-Apr-19 03:20 220 38 7.0
2014-Apr-19 02:50 220 38 6.0
2014-Apr-19 02:20 220 37 6.0
2014-Apr-19 01:50 220 36 6.0
2014-Apr-19 01:20 220 37 6.0
2014-Apr-19 00:50 220 39 6.0
2014-Apr-19 00:20 220 37 6.0
2014-Apr-18 23:50 220 36 6.0
2014-Apr-18 23:20 220 36 6.0
2014-Apr-18 22:50 220 34 6.0
2014-Apr-18 22:20 220 37 6.0
2014-Apr-18 21:50 220 38 6.0
2014-Apr-18 21:20 220 34 6.0
2014-Apr-18 20:50 210 33 5.0
2014-Apr-18 20:20 210 34 6.0
2014-Apr-18 19:50 210 32 6.0
2014-Apr-18 19:20 210 31 6.0
2014-Apr-18 18:50 210 32 6.0
2014-Apr-18 18:20 210 31 6.0
2014-Apr-18 17:50 210 32 6.0
2014-Apr-18 17:20 210 30 6.0
2014-Apr-18 16:50 210 29 6.0
2014-Apr-18 16:20 210 32 6.0
2014-Apr-18 15:50 210 29 6.0
2014-Apr-18 15:10 210 27 5.4 6.0
2014-Apr-18 14:50 210 27 6.0
2014-Apr-18 14:20 210 27 6.0
2014-Apr-18 13:50 210 29 5.0
2014-Apr-18 13:20 210 26 6.0
2014-Apr-18 12:50 210 24 5.0
2014-Apr-18 12:10 210 22 5.4 5.0
2014-Apr-18 11:50 200 22 5.0
2014-Apr-18 11:20 210 20 5.0
2014-Apr-18 10:50 200 18 5.0
2014-Apr-18 10:20 200 15 5.0
2014-Apr-18 09:50 200 13 5.0
2014-Apr-18 09:20 200 10 5.4 5.0 Showers in the vicinity.
2014-Apr-18 08:50 200 9 5.0
2014-Apr-18 08:20 220 8 5.0
2014-Apr-18 07:50 220 5 5.0
2014-Apr-18 07:20 170 3 5.0
2014-Apr-18 06:50 250 4 6.0
2014-Apr-18 06:10 280 10 5.4 7.0 Showers in the vicinity.
2014-Apr-18 05:50 330 7 6.0
2014-Apr-18 05:20 020 7 6.0
2014-Apr-18 04:50 360 7 5.0
2014-Apr-18 04:20 330 3 5.0
2014-Apr-18 03:50 010 6 4.0
2014-Apr-18 03:20 340 7 4.0
2014-Apr-18 02:50 350 20 5.0
2014-Apr-18 02:20 340 10 5.0
2014-Apr-18 01:50 340 10 5.0
2014-Apr-18 01:20 350 16 5.0
2014-Apr-18 00:50 340 14 5.0
2014-Apr-18 00:20 340 15 5.0
2014-Apr-17 23:50 350 23 5.0
2014-Apr-17 23:20 340 20 5.0
2014-Apr-17 22:50 350 19 5.0
2014-Apr-17 22:20 350 20 6.0
2014-Apr-17 21:50 350 27 6.0
2014-Apr-17 21:20 350 27 6.0
2014-Apr-17 20:50 350 27 6.0
2014-Apr-17 20:20 350 26 5.0
2014-Apr-17 19:50 350 29 5.0
2014-Apr-17 19:20 360 25 5.0